Volver al catálogo

SPACENET 4

ASC 2

ActivoComunicacionesGEO
NORAD 21227·PAYLOAD·🇺🇸 United States

Lanzado Apr 13, 1991 desde Cape Canaveral Space Force Station

Loading…

TLE

ActualizadoSource: Space-Track

Época: Sep 14, 2026, 01:45 UTC

1 21227U 91028A   26257.07305674 -.00000239  00000-0  00000-0 0  9993
2 21227  13.8316  13.1770 0006125 306.0122  43.8780  0.99572341127252

Sigue SPACENET 4 en tiempo real con AllMySat

Download on the App Store